STARLINK-38137, 100198

Orbit data source: Space-Track

STARLINK-38137, 100198 is a payload satellite owned by SpaceX/Seattle (US) in SSO that was launched on Sat, 01 Aug 2026 UTC launched from the Air Force Western Test Range (AFWTR). Payload-class satellites include a variety of spacecraft equipped with specific instruments for various scientific and technological missions. These include communications satellites like Starlink; space stations such as the ISS; scientific satellites like the Hubble; Earth observation satellites from companies like Planet Labs, Umbra, and HawkEye 360; GPS; miniature CubeSats for education and research; and military/defense satellites.

Loading next visibility...
Identifier
100198, 2026-175V
Orbit
SSO
Country
Flag of USUS
Related business
Manufacturer
SpaceX/Seattle
Mission
Operational spacecraft
Bus & Motor
STARLINK V2MO, Unknown motor
Mass
575 kg wet, ~530 kg dry
Launch date (UTC)
2026-08-01 (2 months ago)
Launch vehicle
Unknown
Launch site
Air Force Western Test Range (AFWTR)
Object type
Payload
Rocket body
Debris
Shape & HBR
BOX + PAN, 17.7 m
Radar Cross Section
Large (>1 m²)

Expand to show TLE details & history
Last TLE update: 8 hours ago

TLE from 8 hours ago
0 STARLINK-38137
1 A0198U 26175V   26263.98276262 -.00410193  00000-0 -57710-2 0  9992
2 A0198  97.2842 106.4658 0000726 112.3632 247.7701 15.57985423  9258
Epoch: 2026-09-20T23:35Z
TLE epoch observation values (Epoch: 2026-09-20T23:35:10.690Z)
Latitude
-0.00001°
Longitude
112.80213°
Altitude
396.819 km
Speed
7.672 km/s
True Right ascension
07h 05m 51s
True Declination
0° 00' 00"
Sunlit
Object was in daylight at epoch
Visualization orbit readout
Latitude
Unknown
Longitude
Unknown
Altitude
Unknown
Speed
Unknown
Apparent Right ascension
Unknown
Apparent Declination
Unknown
Sunlit
N/A
Visualization observer readout
Local Sidereal Time
00:09:52
Azimuth
Unknown
Elevation
Unknown
Doppler factor
Unknown
Orbital elements
Apogee altitude
390.89 km
Perigee altitude
389.907 km
Semi-major axis
6,768.535 km
Eccentricity
0.00007
Inclination
97.2842°
RAAN
106.4658°
Arg. of periapsis
112.3632°
True anomaly
247.7624°
Mean anomaly
247.7701°
Eccentric anomaly
247.76625°
Mean motion
3.89763 °/min
Orbital period
92.36 mins
BSTAR
-0.005771
Loading maneuver chart data...
Computing Atmospheric mass density...
Loading historical data...
Loading historical data...
Loading historical data...
Loading historical data...
Loading historical data...
Loading historical data...
Loading historical data...

Documentation

Showing up to 5 results
|